contact:dominique.lefevre@mio.osupytheas.fr, maurice.libes@osupytheas.fr, didier.mallarino@osupytheas.fr
Project:EMSO http://www.emso-fr.org/EMSO-France
Depth: 2436.0 m
Title:EMSO Ligure Ouest : Data MII capteur MICROCAT
DateTime_Computer,Latitude,Longitude,Temperature,Conductivity,Pressure,DateTime_Instrument
DateTime_Computer,Latitude,Longitude,degC,S m-1,dbar,DateTime_Instrument
2020-03-18T00:01:54Z,42.805,6.029,13.2976,4.60001,2470.147,2020-3-18T02:02:31Z
2020-03-18T00:04:57Z,42.805,6.029,13.2986,4.60033,2470.11,2020-3-18T02:05:34Z
2020-03-18T00:08:00Z,42.805,6.029,13.2980,4.60023,2470.087,2020-3-18T02:08:38Z
2020-03-18T00:11:04Z,42.805,6.029,13.2989,4.60008,2470.124,2020-3-18T02:11:41Z
2020-03-18T00:14:07Z,42.805,6.029,13.2989,4.60010,2470.087,2020-3-18T02:14:44Z
2020-03-18T00:17:10Z,42.805,6.029,13.2984,4.60019,2470.087,2020-3-18T02:17:48Z
2020-03-18T00:20:14Z,42.805,6.029,13.2979,4.60010,2470.087,2020-3-18T02:20:51Z
2020-03-18T00:23:17Z,42.805,6.029,13.2978,4.59998,2470.1,2020-3-18T02:23:54Z
2020-03-18T00:26:20Z,42.805,6.029,13.2981,4.60001,2470.133,2020-3-18T02:26:57Z
2020-03-18T00:29:23Z,42.805,6.029,13.2979,4.60022,2470.1,2020-3-18T02:30:01Z
2020-03-18T00:32:26Z,42.805,6.029,13.2988,4.60039,2470.124,2020-3-18T02:33:04Z
2020-03-18T00:35:30Z,42.805,6.029,13.2990,4.60041,2470.147,2020-3-18T02:36:07Z
2020-03-18T00:38:33Z,42.805,6.029,13.2988,4.59999,2470.124,2020-3-18T02:39:10Z
2020-03-18T00:41:36Z,42.805,6.029,13.2981,4.60019,2470.11,2020-3-18T02:42:14Z
2020-03-18T00:44:40Z,42.805,6.029,13.2983,4.60044,2470.11,2020-3-18T02:45:17Z
2020-03-18T00:47:43Z,42.805,6.029,13.2991,4.60024,2470.11,2020-3-18T02:48:20Z
2020-03-18T00:50:46Z,42.805,6.029,13.2991,4.60032,2470.133,2020-3-18T02:51:23Z
2020-03-18T00:53:49Z,42.805,6.029,13.2979,4.60015,2470.11,2020-3-18T02:54:27Z
2020-03-18T00:56:52Z,42.805,6.029,13.2983,4.60027,2470.133,2020-3-18T02:57:30Z
2020-03-18T00:59:56Z,42.805,6.029,13.3005,4.60050,2470.133,2020-3-18T03:00:33Z
2020-03-18T01:02:59Z,42.805,6.029,13.2979,4.60046,2470.124,2020-3-18T03:03:36Z
2020-03-18T01:06:02Z,42.805,6.029,13.2996,4.60044,2470.133,2020-3-18T03:06:40Z
2020-03-18T01:09:06Z,42.805,6.029,13.2991,4.60022,2470.124,2020-3-18T03:09:43Z
2020-03-18T01:12:09Z,42.805,6.029,13.2981,4.60039,2470.147,2020-3-18T03:12:46Z
2020-03-18T01:15:12Z,42.805,6.029,13.2979,4.60019,2470.124,2020-3-18T03:15:50Z
2020-03-18T01:18:16Z,42.805,6.029,13.2990,4.60017,2470.124,2020-3-18T03:18:53Z
2020-03-18T01:21:19Z,42.805,6.029,13.2994,4.60013,2470.133,2020-3-18T03:21:56Z
2020-03-18T01:24:22Z,42.805,6.029,13.2978,4.60032,2470.11,2020-3-18T03:24:59Z
2020-03-18T01:27:25Z,42.805,6.029,13.2983,4.59996,2470.133,2020-3-18T03:28:03Z
2020-03-18T01:30:28Z,42.805,6.029,13.3003,4.60033,2470.124,2020-3-18T03:31:06Z
2020-03-18T01:33:32Z,42.805,6.029,13.2974,4.60011,2470.147,2020-3-18T03:34:09Z
2020-03-18T01:36:35Z,42.805,6.029,13.2974,4.60026,2470.133,2020-3-18T03:37:13Z
2020-03-18T01:39:38Z,42.805,6.029,13.2982,4.60023,2470.147,2020-3-18T03:40:16Z
2020-03-18T01:42:42Z,42.805,6.029,13.2994,4.60031,2470.147,2020-3-18T03:43:19Z
2020-03-18T01:45:45Z,42.805,6.029,13.2972,4.60021,2470.147,2020-3-18T03:46:22Z
2020-03-18T01:48:48Z,42.805,6.029,13.2985,4.60025,2470.11,2020-3-18T03:49:25Z
2020-03-18T01:51:51Z,42.805,6.029,13.2991,4.60029,2470.11,2020-3-18T03:52:29Z
2020-03-18T01:54:55Z,42.805,6.029,13.2985,4.60056,2470.147,2020-3-18T03:55:32Z
2020-03-18T01:57:58Z,42.805,6.029,13.2988,4.60034,2470.124,2020-3-18T03:58:35Z
2020-03-18T02:01:01Z,42.805,6.029,13.2974,4.60024,2470.156,2020-3-18T04:01:38Z
2020-03-18T02:04:04Z,42.805,6.029,13.2974,4.60011,2470.11,2020-3-18T04:04:42Z
2020-03-18T02:07:08Z,42.805,6.029,13.2991,4.60051,2470.133,2020-3-18T04:07:45Z
2020-03-18T02:10:11Z,42.805,6.029,13.2993,4.60046,2470.156,2020-3-18T04:10:48Z
2020-03-18T02:13:14Z,42.805,6.029,13.2988,4.60036,2470.133,2020-3-18T04:13:52Z
2020-03-18T02:16:17Z,42.805,6.029,13.2984,4.60035,2470.156,2020-3-18T04:16:55Z
2020-03-18T02:19:21Z,42.805,6.029,13.2985,4.60057,2470.156,2020-3-18T04:19:58Z
2020-03-18T02:22:24Z,42.805,6.029,13.2994,4.60054,2470.119,2020-3-18T04:23:01Z
2020-03-18T02:25:27Z,42.805,6.029,13.2995,4.60014,2470.133,2020-3-18T04:26:05Z
2020-03-18T02:28:30Z,42.805,6.029,13.2986,4.60006,2470.156,2020-3-18T04:29:08Z
2020-03-18T02:31:34Z,42.805,6.029,13.3007,4.60017,2470.133,2020-3-18T04:32:11Z
2020-03-18T02:34:37Z,42.805,6.029,13.3002,4.60003,2470.11,2020-3-18T04:35:14Z
2020-03-18T02:37:40Z,42.805,6.029,13.3004,4.60019,2470.156,2020-3-18T04:38:17Z
2020-03-18T02:40:43Z,42.805,6.029,13.3011,4.60020,2470.133,2020-3-18T04:41:21Z
2020-03-18T02:43:47Z,42.805,6.029,13.3006,4.60019,2470.147,2020-3-18T04:44:24Z
2020-03-18T02:46:50Z,42.805,6.029,13.3001,4.60043,2470.147,2020-3-18T04:47:27Z
2020-03-18T02:49:53Z,42.805,6.029,13.3021,4.60033,2470.133,2020-3-18T04:50:31Z
2020-03-18T02:52:56Z,42.805,6.029,13.2991,4.60072,2470.147,2020-3-18T04:53:34Z
2020-03-18T02:56:00Z,42.805,6.029,13.2998,4.60029,2470.11,2020-3-18T04:56:37Z
2020-03-18T02:59:03Z,42.805,6.029,13.2998,4.60023,2470.133,2020-3-18T04:59:40Z
2020-03-18T03:02:06Z,42.805,6.029,13.3000,4.60003,2470.18,2020-3-18T05:02:44Z
2020-03-18T03:05:09Z,42.805,6.029,13.3011,4.60011,2470.147,2020-3-18T05:05:47Z
2020-03-18T03:08:13Z,42.805,6.029,13.3012,4.60026,2470.147,2020-3-18T05:08:50Z
2020-03-18T03:11:16Z,42.805,6.029,13.3007,4.60034,2470.147,2020-3-18T05:11:53Z
2020-03-18T03:14:19Z,42.805,6.029,13.3004,4.60010,2470.147,2020-3-18T05:14:56Z
2020-03-18T03:17:22Z,42.805,6.029,13.3001,4.59990,2470.133,2020-3-18T05:18:00Z
2020-03-18T03:20:25Z,42.805,6.029,13.3003,4.59993,2470.156,2020-3-18T05:21:03Z
2020-03-18T03:23:29Z,42.805,6.029,13.2996,4.60003,2470.147,2020-3-18T05:24:06Z
2020-03-18T03:26:32Z,42.805,6.029,13.3005,4.59999,2470.171,2020-3-18T05:27:09Z
2020-03-18T03:29:35Z,42.805,6.029,13.3001,4.60046,2470.147,2020-3-18T05:30:13Z
2020-03-18T03:32:38Z,42.805,6.029,13.2997,4.60054,2470.133,2020-3-18T05:33:16Z
2020-03-18T03:35:42Z,42.805,6.029,13.3004,4.60033,2470.133,2020-3-18T05:36:19Z
2020-03-18T03:38:45Z,42.805,6.029,13.2994,4.60055,2470.171,2020-3-18T05:39:22Z
2020-03-18T03:41:48Z,42.805,6.029,13.2982,4.60058,2470.171,2020-3-18T05:42:25Z
2020-03-18T03:44:51Z,42.805,6.029,13.2995,4.60055,2470.171,2020-3-18T05:45:29Z
2020-03-18T03:47:55Z,42.805,6.029,13.2995,4.60032,2470.171,2020-3-18T05:48:32Z
2020-03-18T03:50:58Z,42.805,6.029,13.2995,4.60033,2470.171,2020-3-18T05:51:35Z
2020-03-18T03:54:01Z,42.805,6.029,13.2999,4.60036,2470.124,2020-3-18T05:54:38Z
2020-03-18T03:57:04Z,42.805,6.029,13.2997,4.60042,2470.156,2020-3-18T05:57:42Z
2020-03-18T04:00:08Z,42.805,6.029,13.2983,4.60017,2470.184,2020-3-18T06:00:45Z
2020-03-18T04:03:11Z,42.805,6.029,13.2996,4.60025,2470.147,2020-3-18T06:03:48Z
2020-03-18T04:06:14Z,42.805,6.029,13.3000,4.60023,2470.147,2020-3-18T06:06:51Z
2020-03-18T04:09:17Z,42.805,6.029,13.2988,4.60040,2470.171,2020-3-18T06:09:55Z
2020-03-18T04:12:20Z,42.805,6.029,13.2987,4.60038,2470.147,2020-3-18T06:12:58Z
2020-03-18T04:15:24Z,42.805,6.029,13.2998,4.60057,2470.133,2020-3-18T06:16:01Z
2020-03-18T04:18:27Z,42.805,6.029,13.3001,4.60021,2470.171,2020-3-18T06:19:04Z
2020-03-18T04:21:30Z,42.805,6.029,13.2995,4.60042,2470.147,2020-3-18T06:22:08Z
2020-03-18T04:24:33Z,42.805,6.029,13.2991,4.60057,2470.11,2020-3-18T06:25:11Z
2020-03-18T04:27:37Z,42.805,6.029,13.3001,4.60032,2470.156,2020-3-18T06:28:14Z
2020-03-18T04:30:40Z,42.805,6.029,13.2992,4.60019,2470.171,2020-3-18T06:31:17Z
2020-03-18T04:33:43Z,42.805,6.029,13.2981,4.60011,2470.133,2020-3-18T06:34:20Z
2020-03-18T04:36:46Z,42.805,6.029,13.2991,4.60026,2470.147,2020-3-18T06:37:24Z
2020-03-18T04:39:50Z,42.805,6.029,13.2992,4.60024,2470.171,2020-3-18T06:40:27Z
2020-03-18T04:42:53Z,42.805,6.029,13.2995,4.60001,2470.147,2020-3-18T06:43:30Z
2020-03-18T04:45:56Z,42.805,6.029,13.3001,4.60005,2470.194,2020-3-18T06:46:34Z
2020-03-18T04:48:59Z,42.805,6.029,13.2986,4.59999,2470.147,2020-3-18T06:49:37Z
2020-03-18T04:52:03Z,42.805,6.029,13.2995,4.60014,2470.147,2020-3-18T06:52:40Z
2020-03-18T04:55:06Z,42.805,6.029,13.3001,4.60025,2470.147,2020-3-18T06:55:43Z
2020-03-18T04:58:09Z,42.805,6.029,13.2992,4.60039,2470.171,2020-3-18T06:58:46Z
2020-03-18T05:01:12Z,42.805,6.029,13.2996,4.60016,2470.133,2020-3-18T07:01:50Z
2020-03-18T05:04:16Z,42.805,6.029,13.2991,4.59998,2470.147,2020-3-18T07:04:53Z
2020-03-18T05:07:19Z,42.805,6.029,13.2996,4.59986,2470.11,2020-3-18T07:07:56Z
2020-03-18T05:10:22Z,42.805,6.029,13.2996,4.59991,2470.147,2020-3-18T07:10:59Z
2020-03-18T05:13:25Z,42.805,6.029,13.2992,4.59990,2470.147,2020-3-18T07:14:03Z
2020-03-18T05:16:29Z,42.805,6.029,13.2998,4.60008,2470.147,2020-3-18T07:17:06Z
2020-03-18T05:19:32Z,42.805,6.029,13.2979,4.60004,2470.156,2020-3-18T07:20:09Z
2020-03-18T05:22:35Z,42.805,6.029,13.2981,4.60033,2470.156,2020-3-18T07:23:12Z
2020-03-18T05:25:38Z,42.805,6.029,13.2983,4.60026,2470.133,2020-3-18T07:26:16Z
2020-03-18T05:28:41Z,42.805,6.029,13.2996,4.60021,2470.147,2020-3-18T07:29:19Z
2020-03-18T05:31:45Z,42.805,6.029,13.2992,4.60033,2470.133,2020-3-18T07:32:22Z
2020-03-18T05:34:48Z,42.805,6.029,13.2977,4.60012,2470.156,2020-3-18T07:35:26Z
2020-03-18T05:37:51Z,42.805,6.029,13.2976,4.59999,2470.11,2020-3-18T07:38:29Z
2020-03-18T05:40:55Z,42.805,6.029,13.2980,4.59999,2470.11,2020-3-18T07:41:32Z
2020-03-18T05:43:58Z,42.805,6.029,13.2996,4.60025,2470.147,2020-3-18T07:44:35Z
2020-03-18T05:47:01Z,42.805,6.029,13.2982,4.60016,2470.11,2020-3-18T07:47:39Z
2020-03-18T05:50:04Z,42.805,6.029,13.2982,4.60010,2470.11,2020-3-18T07:50:42Z
2020-03-18T05:53:08Z,42.805,6.029,13.2981,4.60009,2470.133,2020-3-18T07:53:45Z
2020-03-18T05:56:11Z,42.805,6.029,13.2975,4.60014,2470.087,2020-3-18T07:56:48Z
2020-03-18T05:59:14Z,42.805,6.029,13.2979,4.59992,2470.11,2020-3-18T07:59:51Z
2020-03-18T06:02:17Z,42.805,6.029,13.2979,4.59994,2470.11,2020-3-18T08:02:55Z
2020-03-18T06:05:21Z,42.805,6.029,13.2983,4.59996,2470.133,2020-3-18T08:05:58Z
2020-03-18T06:08:24Z,42.805,6.029,13.2982,4.60009,2470.1,2020-3-18T08:09:01Z
2020-03-18T06:11:27Z,42.805,6.029,13.2984,4.60009,2470.133,2020-3-18T08:12:05Z
2020-03-18T06:14:30Z,42.805,6.029,13.2983,4.60024,2470.124,2020-3-18T08:15:08Z
2020-03-18T06:17:34Z,42.805,6.029,13.2982,4.60005,2470.133,2020-3-18T08:18:11Z
2020-03-18T06:20:37Z,42.805,6.029,13.2980,4.59999,2470.11,2020-3-18T08:21:15Z
2020-03-18T06:23:41Z,42.805,6.029,13.2987,4.60009,2470.11,2020-3-18T08:24:18Z
2020-03-18T06:26:44Z,42.805,6.029,13.2979,4.59991,2470.124,2020-3-18T08:27:21Z
2020-03-18T06:29:47Z,42.805,6.029,13.2984,4.60016,2470.087,2020-3-18T08:30:24Z
2020-03-18T06:32:50Z,42.805,6.029,13.2979,4.60009,2470.133,2020-3-18T08:33:28Z
2020-03-18T06:35:54Z,42.805,6.029,13.2993,4.60008,2470.124,2020-3-18T08:36:31Z
2020-03-18T06:38:57Z,42.805,6.029,13.2977,4.59997,2470.11,2020-3-18T08:39:34Z
2020-03-18T06:42:00Z,42.805,6.029,13.2977,4.60001,2470.11,2020-3-18T08:42:37Z
2020-03-18T06:45:03Z,42.805,6.029,13.2977,4.60000,2470.124,2020-3-18T08:45:41Z
2020-03-18T06:48:07Z,42.805,6.029,13.2983,4.60001,2470.124,2020-3-18T08:48:44Z
2020-03-18T06:51:10Z,42.805,6.029,13.2983,4.60006,2470.11,2020-3-18T08:51:47Z
2020-03-18T06:54:13Z,42.805,6.029,13.2987,4.60009,2470.11,2020-3-18T08:54:50Z
2020-03-18T06:57:16Z,42.805,6.029,13.2983,4.60009,2470.087,2020-3-18T08:57:54Z
2020-03-18T07:00:20Z,42.805,6.029,13.2977,4.59997,2470.087,2020-3-18T09:00:57Z
2020-03-18T07:03:23Z,42.805,6.029,13.2976,4.59995,2470.087,2020-3-18T09:04:00Z
2020-03-18T07:06:26Z,42.805,6.029,13.2980,4.59999,2470.11,2020-3-18T09:07:03Z
2020-03-18T07:09:29Z,42.805,6.029,13.2982,4.60017,2470.1,2020-3-18T09:10:07Z
2020-03-18T07:12:33Z,42.805,6.029,13.2978,4.60001,2470.124,2020-3-18T09:13:10Z
2020-03-18T07:15:36Z,42.805,6.029,13.2976,4.60016,2470.087,2020-3-18T09:16:14Z
2020-03-18T07:18:40Z,42.805,6.029,13.2989,4.60006,2470.063,2020-3-18T09:19:17Z
2020-03-18T07:21:43Z,42.805,6.029,13.2984,4.60016,2470.087,2020-3-18T09:22:20Z
2020-03-18T07:24:46Z,42.805,6.029,13.2983,4.60008,2470.11,2020-3-18T09:25:23Z
2020-03-18T07:27:49Z,42.805,6.029,13.2983,4.60024,2470.063,2020-3-18T09:28:27Z
2020-03-18T07:30:53Z,42.805,6.029,13.2986,4.60020,2470.087,2020-3-18T09:31:30Z
2020-03-18T07:33:56Z,42.805,6.029,13.2985,4.60007,2470.1,2020-3-18T09:34:33Z
2020-03-18T07:36:59Z,42.805,6.029,13.2982,4.60031,2470.11,2020-3-18T09:37:36Z
2020-03-18T07:40:02Z,42.805,6.029,13.2973,4.59999,2470.077,2020-3-18T09:40:40Z
2020-03-18T07:43:05Z,42.805,6.029,13.2982,4.60021,2470.124,2020-3-18T09:43:43Z
2020-03-18T07:46:09Z,42.805,6.029,13.2980,4.59986,2470.087,2020-3-18T09:46:46Z
2020-03-18T07:49:12Z,42.805,6.029,13.2976,4.60014,2470.11,2020-3-18T09:49:49Z
2020-03-18T07:52:15Z,42.805,6.029,13.2985,4.60021,2470.087,2020-3-18T09:52:53Z
2020-03-18T07:55:18Z,42.805,6.029,13.2990,4.60021,2470.087,2020-3-18T09:55:56Z
2020-03-18T07:58:22Z,42.805,6.029,13.2985,4.60014,2470.063,2020-3-18T09:58:59Z
2020-03-18T08:01:25Z,42.805,6.029,13.2979,4.59987,2470.087,2020-3-18T10:02:02Z
2020-03-18T08:04:29Z,42.805,6.029,13.2993,4.60029,2470.087,2020-3-18T10:05:06Z
2020-03-18T08:07:32Z,42.805,6.029,13.2985,4.60027,2470.077,2020-3-18T10:08:09Z
2020-03-18T08:10:35Z,42.805,6.029,13.2980,4.60010,2470.063,2020-3-18T10:11:13Z
2020-03-18T08:13:38Z,42.805,6.029,13.2982,4.60016,2470.087,2020-3-18T10:14:16Z
2020-03-18T08:16:42Z,42.805,6.029,13.2976,4.59995,2470.087,2020-3-18T10:17:19Z
2020-03-18T08:19:45Z,42.805,6.029,13.2980,4.59994,2470.053,2020-3-18T10:20:22Z
2020-03-18T08:22:48Z,42.805,6.029,13.2982,4.59993,2470.063,2020-3-18T10:23:26Z
2020-03-18T08:25:51Z,42.805,6.029,13.2974,4.59993,2470.063,2020-3-18T10:26:29Z
2020-03-18T08:28:55Z,42.805,6.029,13.2983,4.60026,2470.053,2020-3-18T10:29:32Z
2020-03-18T08:31:58Z,42.805,6.029,13.2982,4.60019,2470.053,2020-3-18T10:32:35Z
2020-03-18T08:35:01Z,42.805,6.029,13.2984,4.60027,2470.067,2020-3-18T10:35:38Z
2020-03-18T08:38:05Z,42.805,6.029,13.2990,4.60038,2470.1,2020-3-18T10:38:42Z
2020-03-18T08:41:08Z,42.805,6.029,13.2988,4.60044,2470.077,2020-3-18T10:41:45Z
2020-03-18T08:44:11Z,42.805,6.029,13.2993,4.60000,2470.077,2020-3-18T10:44:49Z
2020-03-18T08:47:14Z,42.805,6.029,13.2983,4.60016,2470.063,2020-3-18T10:47:52Z
2020-03-18T08:50:18Z,42.805,6.029,13.2978,4.59996,2470.053,2020-3-18T10:50:55Z
2020-03-18T08:53:21Z,42.805,6.029,13.2982,4.60010,2470.063,2020-3-18T10:53:58Z
2020-03-18T08:56:24Z,42.805,6.029,13.2989,4.60022,2470.053,2020-3-18T10:57:02Z
2020-03-18T08:59:27Z,42.805,6.029,13.2979,4.60009,2470.04,2020-3-18T11:00:05Z
2020-03-18T09:02:31Z,42.805,6.029,13.2981,4.60022,2470.063,2020-3-18T11:03:08Z
2020-03-18T09:05:34Z,42.805,6.029,13.2975,4.60002,2470.063,2020-3-18T11:06:11Z
2020-03-18T09:08:37Z,42.805,6.029,13.2976,4.60016,2470.04,2020-3-18T11:09:15Z
2020-03-18T09:11:40Z,42.805,6.029,13.2996,4.60021,2470.077,2020-3-18T11:12:18Z
2020-03-18T09:14:44Z,42.805,6.029,13.3000,4.60020,2470.04,2020-3-18T11:15:21Z
2020-03-18T09:17:47Z,42.805,6.029,13.2991,4.60031,2470.063,2020-3-18T11:18:24Z
2020-03-18T09:20:50Z,42.805,6.029,13.2993,4.60027,2469.993,2020-3-18T11:21:28Z
2020-03-18T09:23:53Z,42.805,6.029,13.2991,4.60021,2469.993,2020-3-18T11:24:31Z
2020-03-18T09:26:57Z,42.805,6.029,13.2996,4.60027,2469.993,2020-3-18T11:27:34Z
2020-03-18T09:30:00Z,42.805,6.029,13.2999,4.60029,2470.017,2020-3-18T11:30:37Z
2020-03-18T09:33:03Z,42.805,6.029,13.2991,4.60001,2470.053,2020-3-18T11:33:41Z
2020-03-18T09:36:06Z,42.805,6.029,13.2992,4.59991,2469.993,2020-3-18T11:36:44Z
2020-03-18T09:39:10Z,42.805,6.029,13.2993,4.60011,2470.017,2020-3-18T11:39:47Z
2020-03-18T09:42:13Z,42.805,6.029,13.2991,4.60009,2470.007,2020-3-18T11:42:50Z
2020-03-18T09:45:16Z,42.805,6.029,13.2988,4.60015,2470.04,2020-3-18T11:45:54Z
2020-03-18T09:48:19Z,42.805,6.029,13.2988,4.60017,2469.993,2020-3-18T11:48:57Z
2020-03-18T09:51:23Z,42.805,6.029,13.2993,4.60001,2470.053,2020-3-18T11:52:00Z
2020-03-18T09:54:26Z,42.805,6.029,13.2983,4.59986,2470.017,2020-3-18T11:55:03Z
2020-03-18T09:57:29Z,42.805,6.029,13.2990,4.60009,2470.007,2020-3-18T11:58:07Z
2020-03-18T10:00:33Z,42.805,6.029,13.3001,4.60010,2470.03,2020-3-18T12:01:10Z
2020-03-18T10:03:36Z,42.805,6.029,13.2983,4.59995,2470.04,2020-3-18T12:04:13Z
2020-03-18T10:06:39Z,42.805,6.029,13.2992,4.60025,2470.03,2020-3-18T12:07:17Z
2020-03-18T10:09:42Z,42.805,6.029,13.2995,4.60006,2470.03,2020-3-18T12:10:20Z
2020-03-18T10:12:46Z,42.805,6.029,13.2990,4.60005,2470.017,2020-3-18T12:13:23Z
2020-03-18T10:15:49Z,42.805,6.029,13.2992,4.60005,2470.053,2020-3-18T12:16:27Z
2020-03-18T10:18:52Z,42.805,6.029,13.3000,4.60038,2470.007,2020-3-18T12:19:30Z
2020-03-18T10:21:56Z,42.805,6.029,13.2990,4.60021,2470.053,2020-3-18T12:22:33Z
2020-03-18T10:24:59Z,42.805,6.029,13.2982,4.60034,2469.993,2020-3-18T12:25:36Z
2020-03-18T10:28:03Z,42.805,6.029,13.2993,4.60005,2470.017,2020-3-18T12:28:40Z
2020-03-18T10:31:06Z,42.805,6.029,13.2994,4.60009,2470.017,2020-3-18T12:31:43Z
2020-03-18T10:34:09Z,42.805,6.029,13.2991,4.60007,2470.04,2020-3-18T12:34:46Z
2020-03-18T10:37:12Z,42.805,6.029,13.2987,4.59998,2469.993,2020-3-18T12:37:50Z
2020-03-18T10:40:15Z,42.805,6.029,13.2993,4.59991,2470.017,2020-3-18T12:40:53Z
2020-03-18T10:43:19Z,42.805,6.029,13.3000,4.60009,2470.007,2020-3-18T12:43:56Z
2020-03-18T10:46:22Z,42.805,6.029,13.2999,4.60006,2470.053,2020-3-18T12:46:59Z
2020-03-18T10:49:25Z,42.805,6.029,13.2983,4.59995,2470.017,2020-3-18T12:50:03Z
2020-03-18T10:52:29Z,42.805,6.029,13.2992,4.59992,2470.007,2020-3-18T12:53:06Z
2020-03-18T10:55:32Z,42.805,6.029,13.2996,4.60003,2469.993,2020-3-18T12:56:09Z
2020-03-18T10:58:35Z,42.805,6.029,13.2996,4.60013,2469.993,2020-3-18T12:59:12Z
2020-03-18T11:01:38Z,42.805,6.029,13.2992,4.60006,2470.017,2020-3-18T13:02:16Z
2020-03-18T11:04:41Z,42.805,6.029,13.2993,4.60003,2470.053,2020-3-18T13:05:19Z
2020-03-18T11:07:45Z,42.805,6.029,13.2992,4.60009,2469.993,2020-3-18T13:08:22Z
2020-03-18T11:10:48Z,42.805,6.029,13.2988,4.60013,2470.017,2020-3-18T13:11:25Z
2020-03-18T11:13:51Z,42.805,6.029,13.2996,4.60005,2470.007,2020-3-18T13:14:29Z
2020-03-18T11:16:55Z,42.805,6.029,13.2985,4.59999,2470.04,2020-3-18T13:17:32Z
2020-03-18T11:19:58Z,42.805,6.029,13.2982,4.60016,2470.03,2020-3-18T13:20:35Z
2020-03-18T11:23:01Z,42.805,6.029,13.2985,4.60025,2470.017,2020-3-18T13:23:38Z
2020-03-18T11:26:04Z,42.805,6.029,13.2992,4.60033,2470.007,2020-3-18T13:26:42Z
2020-03-18T11:29:07Z,42.805,6.029,13.3015,4.60034,2470.017,2020-3-18T13:29:45Z
2020-03-18T11:32:11Z,42.805,6.029,13.2991,4.60017,2470.017,2020-3-18T13:32:48Z
2020-03-18T11:35:14Z,42.805,6.029,13.2980,4.60014,2469.993,2020-3-18T13:35:51Z
2020-03-18T11:38:17Z,42.805,6.029,13.2986,4.60000,2470.017,2020-3-18T13:38:55Z
2020-03-18T11:41:20Z,42.805,6.029,13.2991,4.60021,2470.017,2020-3-18T13:41:58Z
2020-03-18T11:44:24Z,42.805,6.029,13.2986,4.60014,2470.03,2020-3-18T13:45:01Z
2020-03-18T11:47:27Z,42.805,6.029,13.2989,4.59991,2470.04,2020-3-18T13:48:05Z
2020-03-18T11:50:31Z,42.805,6.029,13.2984,4.60001,2470.04,2020-3-18T13:51:08Z
2020-03-18T11:53:34Z,42.805,6.029,13.2983,4.59991,2470.03,2020-3-18T13:54:11Z
2020-03-18T11:56:37Z,42.805,6.029,13.2979,4.60017,2469.993,2020-3-18T13:57:14Z
2020-03-18T11:59:40Z,42.805,6.029,13.2986,4.59998,2470.03,2020-3-18T14:00:18Z
2020-03-18T12:02:44Z,42.805,6.029,13.2983,4.59988,2470.017,2020-3-18T14:03:21Z
2020-03-18T12:05:47Z,42.805,6.029,13.2979,4.60002,2470.017,2020-3-18T14:06:24Z
2020-03-18T12:08:50Z,42.805,6.029,13.2987,4.60022,2470.007,2020-3-18T14:09:28Z
2020-03-18T12:11:53Z,42.805,6.029,13.2999,4.60026,2470.077,2020-3-18T14:12:31Z
2020-03-18T12:14:57Z,42.805,6.029,13.2982,4.60023,2469.993,2020-3-18T14:15:34Z
2020-03-18T12:18:00Z,42.805,6.029,13.2982,4.59990,2470.03,2020-3-18T14:18:37Z
2020-03-18T12:21:03Z,42.805,6.029,13.2982,4.60007,2470.017,2020-3-18T14:21:40Z
2020-03-18T12:24:06Z,42.805,6.029,13.2981,4.60013,2470.017,2020-3-18T14:24:44Z
2020-03-18T12:27:10Z,42.805,6.029,13.2976,4.60011,2470.017,2020-3-18T14:27:47Z
2020-03-18T12:30:13Z,42.805,6.029,13.2990,4.60015,2470.053,2020-3-18T14:30:50Z
2020-03-18T12:33:16Z,42.805,6.029,13.2993,4.60022,2470.017,2020-3-18T14:33:54Z
2020-03-18T12:36:20Z,42.805,6.029,13.2987,4.60017,2470.04,2020-3-18T14:36:57Z
2020-03-18T12:39:23Z,42.805,6.029,13.2987,4.60013,2470.053,2020-3-18T14:40:00Z
2020-03-18T12:42:26Z,42.805,6.029,13.2980,4.60011,2470.007,2020-3-18T14:43:04Z
2020-03-18T12:45:29Z,42.805,6.029,13.2989,4.60015,2470.04,2020-3-18T14:46:07Z
2020-03-18T12:48:33Z,42.805,6.029,13.2981,4.60021,2470.017,2020-3-18T14:49:10Z
2020-03-18T12:51:36Z,42.805,6.029,13.2988,4.60011,2470.007,2020-3-18T14:52:13Z
2020-03-18T12:54:39Z,42.805,6.029,13.2996,4.60008,2469.993,2020-3-18T14:55:17Z
2020-03-18T12:57:42Z,42.805,6.029,13.2990,4.60005,2470.017,2020-3-18T14:58:20Z
2020-03-18T13:00:46Z,42.805,6.029,13.2986,4.60002,2470.017,2020-3-18T15:01:23Z
2020-03-18T13:03:49Z,42.805,6.029,13.2984,4.60003,2469.993,2020-3-18T15:04:26Z
2020-03-18T13:06:52Z,42.805,6.029,13.2990,4.60017,2470.04,2020-3-18T15:07:29Z
2020-03-18T13:09:55Z,42.805,6.029,13.2983,4.60011,2470.04,2020-3-18T15:10:33Z
2020-03-18T13:12:59Z,42.805,6.029,13.2980,4.60007,2470.03,2020-3-18T15:13:36Z
2020-03-18T13:16:02Z,42.805,6.029,13.2982,4.60002,2470.053,2020-3-18T15:16:39Z
2020-03-18T13:19:05Z,42.805,6.029,13.2982,4.60005,2470.03,2020-3-18T15:19:43Z
2020-03-18T13:22:08Z,42.805,6.029,13.2979,4.60019,2470.017,2020-3-18T15:22:46Z
2020-03-18T13:25:12Z,42.805,6.029,13.2983,4.59995,2470.03,2020-3-18T15:25:49Z
2020-03-18T13:28:15Z,42.805,6.029,13.2986,4.60011,2470.017,2020-3-18T15:28:52Z
2020-03-18T13:31:18Z,42.805,6.029,13.2983,4.60012,2470.04,2020-3-18T15:31:55Z
2020-03-18T13:34:21Z,42.805,6.029,13.2985,4.60014,2470.04,2020-3-18T15:34:59Z
2020-03-18T13:37:24Z,42.805,6.029,13.2991,4.60023,2470.03,2020-3-18T15:38:02Z
2020-03-18T13:40:28Z,42.805,6.029,13.2992,4.60018,2470.053,2020-3-18T15:41:05Z
2020-03-18T13:43:31Z,42.805,6.029,13.2983,4.60031,2470.03,2020-3-18T15:44:08Z
2020-03-18T13:46:34Z,42.805,6.029,13.2979,4.59997,2470.04,2020-3-18T15:47:12Z
2020-03-18T13:49:37Z,42.805,6.029,13.2988,4.60003,2470.03,2020-3-18T15:50:15Z
2020-03-18T13:52:41Z,42.805,6.029,13.2984,4.60003,2470.04,2020-3-18T15:53:18Z
2020-03-18T13:55:44Z,42.805,6.029,13.2986,4.60003,2470.053,2020-3-18T15:56:21Z
2020-03-18T13:58:47Z,42.805,6.029,13.2982,4.59998,2469.993,2020-3-18T15:59:25Z
2020-03-18T14:01:50Z,42.805,6.029,13.2981,4.59999,2470.017,2020-3-18T16:02:28Z
2020-03-18T14:04:54Z,42.805,6.029,13.2983,4.59999,2470.007,2020-3-18T16:05:31Z
2020-03-18T14:07:57Z,42.805,6.029,13.2980,4.60036,2470.017,2020-3-18T16:08:34Z
2020-03-18T14:11:00Z,42.805,6.029,13.2989,4.60016,2470.017,2020-3-18T16:11:38Z
2020-03-18T14:14:04Z,42.805,6.029,13.2993,4.60021,2470.04,2020-3-18T16:14:41Z
2020-03-18T14:17:07Z,42.805,6.029,13.2981,4.59997,2470.04,2020-3-18T16:17:44Z
2020-03-18T14:20:10Z,42.805,6.029,13.2999,4.60029,2470.017,2020-3-18T16:20:47Z
2020-03-18T14:23:13Z,42.805,6.029,13.2996,4.60006,2470.053,2020-3-18T16:23:51Z
2020-03-18T14:26:17Z,42.805,6.029,13.2984,4.60006,2470.03,2020-3-18T16:26:54Z
2020-03-18T14:29:20Z,42.805,6.029,13.2982,4.60017,2470.077,2020-3-18T16:29:57Z
2020-03-18T14:32:23Z,42.805,6.029,13.2998,4.60024,2470.03,2020-3-18T16:33:00Z
2020-03-18T14:35:26Z,42.805,6.029,13.2980,4.60024,2470.03,2020-3-18T16:36:04Z
2020-03-18T14:38:30Z,42.805,6.029,13.2981,4.60022,2470.017,2020-3-18T16:39:07Z
2020-03-18T14:41:33Z,42.805,6.029,13.2979,4.60003,2470.04,2020-3-18T16:42:10Z
2020-03-18T14:44:36Z,42.805,6.029,13.2980,4.60006,2470.03,2020-3-18T16:45:14Z
2020-03-18T14:47:39Z,42.805,6.029,13.2980,4.60012,2470.03,2020-3-18T16:48:17Z
2020-03-18T14:50:43Z,42.805,6.029,13.2988,4.60039,2470.04,2020-3-18T16:51:20Z
2020-03-18T14:53:46Z,42.805,6.029,13.2986,4.60027,2470.03,2020-3-18T16:54:23Z
2020-03-18T14:56:49Z,42.805,6.029,13.2988,4.60024,2470.04,2020-3-18T16:57:27Z
2020-03-18T14:59:53Z,42.805,6.029,13.2979,4.60020,2470.04,2020-3-18T17:00:30Z
2020-03-18T15:02:56Z,42.805,6.029,13.2983,4.60006,2470.04,2020-3-18T17:03:33Z
2020-03-18T15:05:59Z,42.805,6.029,13.2974,4.60003,2470.017,2020-3-18T17:06:37Z
2020-03-18T15:09:02Z,42.805,6.029,13.2971,4.59993,2470.017,2020-3-18T17:09:40Z
2020-03-18T15:12:06Z,42.805,6.029,13.2980,4.60024,2470.053,2020-3-18T17:12:43Z
2020-03-18T15:15:09Z,42.805,6.029,13.2989,4.60011,2470.03,2020-3-18T17:15:46Z